CW0439 Weather Reports


Display with metric or nautical units.
time (UTC)temp
F
wind
direction
speed
MPH
gust
MPH
rain 1hr
in
rain 24hr
in
rain mn
in
humidity
%
barometer
mb
20260508202622 72 249 3.0 9.0 0.00 0.00 0.00 23 1016.5
20260508201633 72 251 5.0 10.0 0.00 0.00 0.00 22 1016.5
20260508200622 72 298 5.0 9.0 0.00 0.00 0.00 26 1016.5
20260508195624 72 273 6.0 10.0 0.00 0.00 0.00 26 1016.4
20260508194617 72 241 6.0 9.0 0.00 0.00 0.00 26 1016.6
20260508193627 72 279 7.0 10.0 0.00 0.00 0.00 26 1016.6
20260508192616 71 184 4.0 12.0 0.00 0.00 0.00 28 1016.7
20260508191624 71 250 5.0 9.0 0.00 0.00 0.00 28 1016.6
20260508190616 71 255 5.0 9.0 0.00 0.00 0.00 30 1016.7
20260508185617 70 240 6.0 11.0 0.00 0.00 0.00 27 1016.7
20260508184625 71 278 4.0 7.0 0.00 0.00 0.00 30 1016.9
20260508183613 69 210 3.0 9.0 0.00 0.00 0.00 32 1016.9
20260508182625 70 263 7.0 10.0 0.00 0.00 0.00 32 1017.1
20260508181613 69 259 6.0 12.0 0.00 0.00 0.00 35 1017.4
20260508180626 69 226 6.0 11.0 0.00 0.00 0.00 37 1017.3
20260508175645 69 267 4.0 9.0 0.00 0.00 0.00 35 1017.5
20260508174632 69 204 4.0 10.0 0.00 0.00 0.00 34 1017.5
20260508173623 69 219 2.0 10.0 0.00 0.00 0.00 33 1017.6
20260508172611 68 275 3.0 10.0 0.00 0.00 0.00 35 1017.5
20260508171640 68 221 6.0 11.0 0.00 0.00 0.00 34 1017.5
20260508170629 68 257 5.0 9.0 0.00 0.00 0.00 30 1017.5
20260508165615 68 136 4.0 7.0 0.00 0.00 0.00 35 1017.6
20260508164626 68 323 2.0 4.0 0.00 0.00 0.00 34 1017.5
20260508163616 67 326 1.0 4.0 0.00 0.00 0.00 39 1017.5
20260508162624 67 355 1.0 4.0 0.00 0.00 0.00 39 1017.5
20260508161617 66 10 1.0 4.0 0.00 0.00 0.00 39 1017.5
20260508160624 65 360 2.0 4.0 0.00 0.00 0.00 40 1017.6
20260508155625 64 76 1.0 3.0 0.00 0.00 0.00 42 1017.5
20260508154615 62 360 1.0 4.0 0.00 0.00 0.00 44 1017.6
20260508153647 61 101 2.0 7.0 0.00 0.00 0.00 44 1017.5
20260508152616 59 38 1.0 5.0 0.00 0.00 0.00 47 1017.5
20260508151627 59 355 1.0 6.0 0.00 0.00 0.00 46 1017.4
20260508150615 58 76 2.0 6.0 0.00 0.00 0.00 47 1017.5
20260508145618 58 90 1.0 4.0 0.00 0.00 0.00 50 1017.3
20260508144626 57 103 1.0 3.0 0.00 0.00 0.00 51 1017.3
20260508143614 55 103 1.0 2.0 0.00 0.00 0.00 51 1017.2
20260508142642 54 103 1.0 2.0 0.00 0.00 0.00 56 1017.0
20260508141614 53 103 0.0 1.0 0.00 0.00 0.00 57 1017.1
20260508140624 51 103 0.0 2.0 0.00 0.00 0.00 59 1016.9
20260508135624 50 103 0.0 2.0 0.00 0.00 0.00 63 1016.9
20260508134615 48 103 0.0 1.0 0.00 0.00 0.00 66 1016.9
20260508133623 46 105 0.0 2.0 0.00 0.00 0.00 69 1016.9
20260508132618 46 105 0.0 1.0 0.00 0.00 0.00 68 1016.7
20260508131629 45 105 0.0 4.0 0.00 0.00 0.00 69 1016.4
20260508130620 45 199 0.0 0.0 0.00 0.00 0.00 70 1016.2
20260508125624 44 199 0.0 0.0 0.00 0.00 0.00 70 1016.1
20260508124615 44 199 0.0 0.0 0.00 0.00 0.00 70 1015.9
20260508123646 45 199 0.0 0.0 0.00 0.00 0.00 69 1015.8
20260508122616 44 148 0.0 0.0 0.00 0.00 0.00 69 1015.6
20260508121612 45 148 0.0 0.0 0.00 0.00 0.00 69 1015.8
20260508120625 45 148 0.0 0.0 0.00 0.00 0.00 68 1015.6
20260508115627 45 148 0.0 0.0 0.00 0.00 0.00 68 1015.5
20260508114617 45 148 0.0 0.0 0.00 0.00 0.00 68 1015.5
20260508113629 45 148 0.0 0.0 0.00 0.00 0.00 68 1015.5
20260508112635 45 148 0.0 0.0 0.00 0.00 0.00 68 1015.5
20260508111623 45 148 0.0 0.0 0.00 0.00 0.00 69 1015.4
20260508110651 45 148 0.0 0.0 0.00 0.00 0.00 69 1015.5
20260508105629 46 148 0.0 0.0 0.00 0.00 0.00 68 1015.4
20260508104621 46 148 0.0 0.0 0.00 0.00 0.00 67 1015.2
20260508103630 46 148 0.0 0.0 0.00 0.00 0.00 67 1015.2
20260508102619 46 148 0.0 0.0 0.00 0.00 0.00 68 1015.1
20260508101611 46 148 0.0 0.0 0.00 0.00 0.00 67 1015.1
20260508100619 47 148 0.0 0.0 0.00 0.00 0.00 66 1015.1
20260508095621 47 148 0.0 0.0 0.00 0.00 0.00 67 1015.2
20260508094631 47 148 0.0 0.0 0.00 0.00 0.00 67 1015.2
20260508093623 47 148 0.0 0.0 0.00 0.00 0.00 66 1015.2
20260508092614 47 148 0.0 0.0 0.00 0.00 0.00 66 1015.2
20260508091625 47 148 0.0 0.0 0.00 0.00 0.00 65 1015.2
20260508090617 48 148 0.0 0.0 0.00 0.00 0.00 65 1015.2
20260508085622 48 148 0.0 0.0 0.00 0.00 0.00 66 1015.2
20260508084631 48 148 0.0 0.0 0.00 0.00 0.00 65 1015.2
20260508083619 48 148 0.0 0.0 0.00 0.00 0.00 64 1015.1
20260508082627 49 148 0.0 0.0 0.00 0.00 0.00 64 1015.1
20260508081639 49 148 0.0 0.0 0.00 0.00 0.00 64 1015.0
20260508080628 49 148 0.0 0.0 0.00 0.00 0.00 64 1015.1
20260508075629 49 148 0.0 0.0 0.00 0.00 0.00 63 1015.1
20260508074618 50 148 0.0 0.0 0.00 0.00 0.00 62 1015.2
20260508073631 50 148 0.0 0.0 0.00 0.00 0.00 61 1015.1
20260508072621 51 148 0.0 0.0 0.00 0.00 0.00 61 1015.2
20260508071611 51 148 0.0 0.0 0.00 0.00 0.00 61 1015.1
20260508070620 51 148 0.0 0.0 0.00 0.00 0.00 61 1015.1
20260508065623 51 148 0.0 0.0 0.00 0.00 0.00 60 1015.0
20260508064611 51 148 0.0 0.0 0.00 0.00 0.00 60 1015.0
20260508063620 52 148 0.0 0.0 0.00 0.00 0.00 58 1014.9
20260508062629 52 148 0.0 0.0 0.00 0.00 0.00 59 1015.0
20260508061624 53 148 0.0 0.0 0.00 0.00 0.00 57 1014.8
20260508060618 53 148 0.0 0.0 0.00 0.00 0.00 57 1014.8
20260508055617 54 148 0.0 0.0 0.00 0.00 0.00 56 1014.8
20260508054645 54 148 0.0 0.0 0.00 0.00 0.00 54 1014.7
20260508053651 54 148 0.0 0.0 0.00 0.00 0.00 54 1014.8
20260508052622 55 148 0.0 0.0 0.00 0.00 0.00 53 1014.7
20260508051649 55 148 0.0 0.0 0.00 0.00 0.00 53 1014.6
20260508050617 56 148 0.0 0.0 0.00 0.00 0.00 52 1014.5
20260508045618 56 148 0.0 0.0 0.00 0.00 0.00 52 1014.5
20260508044631 56 148 0.0 0.0 0.00 0.00 0.00 51 1014.5
20260508043617 56 148 0.0 0.0 0.00 0.00 0.00 51 1014.6
20260508042627 57 148 0.0 0.0 0.00 0.00 0.00 51 1014.5
20260508041657 58 148 0.0 0.0 0.00 0.00 0.00 47 1014.4
20260508041625 58 148 0.0 0.0 0.00 0.00 0.00 47 1014.4
20260508040617 59 148 0.0 0.0 0.00 0.00 0.00 48 1014.4
20260508035618 60 148 0.0 0.0 0.00 0.00 0.00 47 1014.3
20260508034646 61 148 0.0 0.0 0.00 0.00 0.00 43 1014.3
20260508033650 61 148 0.0 0.0 0.00 0.00 0.00 43 1014.2
20260508032615 63 148 0.0 0.0 0.00 0.00 0.00 41 1014.0
20260508031628 64 148 0.0 0.0 0.00 0.00 0.00 38 1013.9
20260508030614 64 148 0.0 0.0 0.00 0.00 0.00 37 1013.8
20260508025630 65 148 0.0 0.0 0.00 0.00 0.00 37 1013.8
20260508024620 66 148 0.0 0.0 0.00 0.00 0.00 35 1013.7
20260508023614 68 264 0.0 0.0 0.00 0.00 0.00 34 1013.5
20260508022644 69 264 0.0 0.0 0.00 0.00 0.00 34 1013.6
20260508021630 70 264 0.0 0.0 0.00 0.00 0.00 31 1013.5
20260508020621 71 264 0.0 0.0 0.00 0.00 0.00 29 1013.5
20260508015623 72 264 0.0 2.0 0.00 0.00 0.00 28 1013.5
20260508014652 73 264 1.0 4.0 0.00 0.00 0.00 27 1013.6
20260508013622 73 247 2.0 5.0 0.00 0.00 0.00 27 1013.6
20260508012631 73 273 1.0 8.0 0.00 0.00 0.00 26 1013.5
20260508011624 73 286 4.0 8.0 0.00 0.00 0.00 26 1013.5
20260508010612 73 251 2.0 7.0 0.00 0.00 0.00 27 1013.7
20260508005652 73 236 4.0 10.0 0.00 0.00 0.00 26 1013.7
20260508004619 73 232 5.0 8.0 0.00 0.00 0.00 25 1013.5
20260508003612 74 243 3.0 8.0 0.00 0.00 0.00 25 1013.6
20260508002621 73 263 5.0 9.0 0.00 0.00 0.00 26 1013.5
20260508001632 74 124 5.0 8.0 0.00 0.00 0.00 25 1013.6
20260508000623 74 259 4.0 10.0 0.00 0.00 0.00 25 1013.9
20260507235624 74 234 5.0 9.0 0.00 0.00 0.00 26 1014.0
20260507234617 74 225 3.0 8.0 0.00 0.00 0.00 25 1014.1
20260507233627 74 262 2.0 5.0 0.00 0.00 0.00 25 1014.2
20260507232614 73 281 2.0 7.0 0.00 0.00 0.00 26 1014.4
20260507231622 73 250 2.0 6.0 0.00 0.00 0.00 26 1014.3
20260507230650 73 148 1.0 5.0 0.00 0.00 0.00 27 1014.4
20260507225630 72 250 2.0 7.0 0.00 0.00 0.00 29 1014.6
20260507224638 71 257 4.0 7.0 0.00 0.00 0.00 27 1015.0
20260507223624 71 182 3.0 9.0 0.00 0.00 0.00 28 1015.1
20260507222613 71 218 2.0 7.0 0.00 0.00 0.00 29 1015.1
20260507221646 70 254 3.0 9.0 0.00 0.00 0.00 28 1015.3
20260507220621 70 263 2.0 8.0 0.00 0.00 0.00 28 1015.3
20260507215643 70 240 2.0 10.0 0.00 0.00 0.00 28 1015.4
20260507214649 71 234 4.0 9.0 0.00 0.00 0.00 27 1015.4
20260507213636 71 251 6.0 10.0 0.00 0.00 0.00 26 1015.6
20260507212628 70 258 4.0 10.0 0.00 0.00 0.00 27 1015.7
20260507211616 71 282 6.0 15.0 0.00 0.00 0.00 26 1015.8
20260507210626 71 263 6.0 12.0 0.00 0.00 0.00 26 1015.9
20260507205626 71 259 4.0 13.0 0.00 0.00 0.00 27 1016.1
20260507204618 71 242 4.0 12.0 0.00 0.00 0.00 26 1016.1
20260507203626 71 205 6.0 11.0 0.00 0.00 0.00 24 1016.1